[[{"header":{"parameterUnit":"m.s-1","parameterCategory":1,"la1":30.2991,"la2":30.254,"lo1":-89.0895,"lo2":-89.0444,"dy":0.0017,"dx":0.0017,"nx":28,"ny":28,"refTime":"2025-07-07T09:00:00:Z","depth":0,"parameterNumber":2,"parameterNumberName":"U-component_of_WINDS"},"data":[0,0,0,0,0,0,0,0,0,0,0,0,0,0,0,0,0,0,0,0,0,0,0,0,0,0,0,0,0,0,0,0,0,0,0,0,0,0,0,0,0,0,0,0,0,0,0,0,0,0,0,0,0,0,0,0,0,0,2.8813,2.8814,0,2.8894,2.8895,2.8896,2.8883,2.8882,2.888,2.8879,2.8964,2.8968,2.8971,0,0,0,0,0,0,0,0,0,0,0,0,0,2.8651,2.8654,2.8813,2.8814,2.8815,2.8894,2.8895,2.8896,2.8883,2.8882,2.888,2.8878,2.8963,2.8967,2.8971,0,0,0,0,0,0,0,0,0,0,0,0,0,2.8725,2.8655,2.8813,2.8818,2.8819,2.8893,2.8895,2.8896,2.8884,2.8882,2.888,2.8878,2.8962,2.8967,2.8972,2.9046,0,0,2.8988,2.8991,0,0,0,0,0,0,0,0,2.8721,2.8731,2.8816,2.8818,2.882,2.8876,2.8869,2.8947,2.8884,2.8859,2.8879,2.8877,2.8937,2.8944,2.8964,2.905,2.9054,2.8989,2.8992,2.8994,2.8996,0,0,0,0,0,0,0,2.8716,2.8728,2.8845,2.8818,2.882,2.8817,2.8826,2.8883,2.8909,2.8861,2.8861,2.887,2.8937,2.8959,2.8966,2.9055,2.8989,2.8993,2.8997,2.8999,2.9207,2.921,0,0,0,0,0,0,2.8709,2.8724,2.8842,2.8847,2.8764,2.8822,2.8831,2.886,2.8908,2.8913,2.8872,2.8869,2.8951,2.8959,2.8969,2.9059,2.8994,2.8999,2.9002,2.9205,2.9208,2.9211,0,0,0,0,0,0,2.8705,2.872,2.8839,2.8785,2.88,2.8827,2.8859,2.8863,2.8884,2.8916,2.8921,2.8889,2.8949,2.8961,2.9027,2.9062,2.9002,2.9007,2.9202,2.9206,2.9209,2.924,0,0,0,0,0,0,2.8701,2.8718,2.8746,2.8786,2.8803,2.8896,2.8862,2.8866,2.8893,2.889,2.8933,2.8938,2.8949,2.9019,2.9032,2.9068,2.9011,2.9199,2.9204,2.9208,2.9236,2.9244,2.9251,0,0,0,0,0,2.8695,2.8752,2.8748,2.8762,2.8839,2.8898,2.8908,2.8917,2.8896,2.8925,2.8945,2.8937,2.9056,2.9026,2.9041,2.9079,2.9197,2.9203,2.9208,2.9233,2.9243,2.9251,0,0,0,0,0,0,2.8717,2.8758,2.8753,2.8825,2.8858,2.8895,2.8932,2.8928,2.8968,2.8964,2.8975,2.8985,2.9052,2.9072,2.9038,2.9153,2.9124,2.9132,2.9138,2.9147,2.9155,2.9148,2.9015,0,0,0,0,0,2.873,2.8774,2.8807,2.8867,2.8884,2.8905,2.8931,2.8936,2.8971,2.8985,2.901,2.9045,2.909,2.912,2.9163,2.9239,2.9248,2.9272,2.928,2.9286,2.9293,2.9335,2.9346,2.9228,2.9228,2.9228,0,0,2.8758,2.8785,2.8812,2.8872,2.8898,2.8944,2.8917,2.8967,2.9001,2.8993,2.9056,2.9076,2.9116,2.9187,2.922,2.9206,2.9328,2.9293,2.9297,2.9301,2.9341,2.9353,2.9362,2.9231,2.9231,2.923,0,0,2.8831,2.8856,2.8909,2.8936,2.8975,2.8989,2.9002,2.904,2.9053,2.9117,2.9111,2.9153,2.923,2.9259,2.9284,2.9368,2.9363,2.9382,2.9422,2.9462,2.9472,2.948,2.951,2.9521,2.9389,2.939,2.939,0,2.8861,2.8929,2.8937,2.8987,2.9014,2.9008,2.9062,2.9088,2.914,2.9159,2.9142,2.9239,2.9266,2.9344,2.9364,2.9384,2.94,2.9377,2.9469,2.9478,2.9486,2.9515,2.9526,2.9392,2.9391,2.9391,2.9391,0,2.8963,2.9011,2.9049,2.9098,2.9129,2.9181,2.9198,2.9229,2.9231,2.9246,2.9312,2.9343,2.9393,2.9412,2.9414,2.949,2.948,2.9467,2.9437,2.9499,2.9526,2.9538,2.9395,2.9394,2.9393,2.9393,0,0,2.9053,2.9106,2.912,2.9143,2.9186,2.9223,2.9275,2.9323,2.9349,2.9385,2.9429,2.9495,2.9482,2.951,2.9516,2.9552,2.9617,2.9534,2.9535,2.9548,2.9703,2.9713,2.9725,2.9614,2.9616,2.9618,2.97,0,2.9131,2.9222,2.9231,2.9312,2.9356,2.9351,2.9396,2.9428,2.9444,2.9485,2.9503,2.9549,2.9529,2.9546,2.9581,2.9602,2.9648,2.9596,2.9655,2.9657,2.9645,2.974,2.9751,2.9826,2.971,2.9712,2.9713,0,2.9234,2.9272,2.9358,2.9395,2.9414,2.9454,2.9499,2.9537,2.9573,2.9583,2.9614,2.9615,2.9669,2.9638,2.9713,2.9677,2.9702,2.9716,2.9719,2.9725,2.9689,2.9748,2.9851,2.9862,2.9731,2.9729,2.9728,0,2.9291,2.9364,2.9425,2.9444,2.9489,2.9517,2.9537,2.9572,2.96,2.9639,2.9657,2.9703,2.9728,2.9763,2.9777,2.9753,2.9852,2.9821,2.9861,2.9861,2.9882,2.9881,2.999,2.9899,2.9898,2.9898,2.9898,0,2.9377,2.943,2.9451,2.9488,2.9547,2.9557,2.9616,2.9635,2.9665,2.9707,2.9705,2.9744,2.976,2.9802,2.9813,2.9874,2.9885,2.9895,2.9897,2.9895,2.9894,2.9911,2.9906,2.9901,2.99,2.99,2.9899,0,2.9451,2.9467,2.9533,2.9569,2.958,2.9622,2.9654,2.969,2.9705,2.9758,2.9771,2.9796,2.9845,2.9862,2.9922,2.993,3.0,2.9998,2.9988,2.9988,3.0027,3.0023,3.0152,3.0169,3.0066,3.0067,3.0068,0,2.9504,2.9545,2.9585,2.9613,2.9634,2.9678,2.9706,2.9718,2.9748,2.9792,2.9823,2.9872,2.9912,2.9991,3.0014,3.006,3.006,3.0101,3.0066,3.0063,3.006,3.0057,3.0062,3.0108,3.0109,3.011,3.0111,0,2.9598,2.9604,2.9645,2.9688,2.9722,2.9757,2.9791,2.9814,2.9831,2.9865,2.9914,2.9945,3.0006,3.0054,3.0101,3.0123,3.012,3.0121,3.0133,3.0131,3.0123,3.0128,3.0005,3.0118,3.0118,3.0117,3.0117,3.0116,2.9664,2.9699,2.9733,2.9779,2.9805,2.9837,2.9873,2.9893,2.9934,2.9984,2.9989,3.0042,3.0078,3.0141,3.0165,3.0207,3.0196,3.0213,3.0217,3.0221,3.0224,3.0116,3.0216,3.0216,3.0216,3.0215,3.0215,0,2.9757,2.9779,2.9821,2.9868,2.9904,2.9897,2.9934,2.9965,3.0012,3.0045,3.0083,3.0141,3.0188,3.0215,3.0262,3.0291,3.0291,3.0303,3.0301,3.0306,3.0232,3.0217,3.0303,3.0303,3.0303,3.0303,3.0302,3.0302,2.981,2.987,2.988,2.9953,2.9974,3.0026,3.0048,3.0078,3.0104,3.0168,3.0207,3.0224,3.0255,3.0304,3.0347,3.0354,3.0372,3.0385,3.0391,3.0321,3.0312,3.0303,3.0289,3.0389,3.0389,3.0462,3.0463,3.0463]},{"header":{"parameterUnit":"m.s-1","parameterCategory":1,"la1":30.2991,"la2":30.254,"lo1":-89.0895,"lo2":-89.0444,"dy":0.0017,"dx":0.0017,"nx":28,"ny":28,"refTime":"2025-07-07T09:00:00:Z","depth":0,"parameterNumber":3,"parameterNumberName":"V-component_of_WINDS"},"data":[0,0,0,0,0,0,0,0,0,0,0,0,0,0,0,0,0,0,0,0,0,0,0,0,0,0,0,0,0,0,0,0,0,0,0,0,0,0,0,0,0,0,0,0,0,0,0,0,0,0,0,0,0,0,0,0,0,0,0.6206,0.6206,0,0.6177,0.6177,0.6176,0.6158,0.6158,0.6158,0.6158,0.6127,0.6126,0.6126,0,0,0,0,0,0,0,0,0,0,0,0,0,0.6245,0.6245,0.6206,0.6206,0.6206,0.6177,0.6177,0.6176,0.6158,0.6158,0.6158,0.6158,0.6127,0.6126,0.6126,0,0,0,0,0,0,0,0,0,0,0,0,0,0.6224,0.6245,0.6207,0.6193,0.6192,0.6177,0.6177,0.6176,0.6158,0.6158,0.6158,0.6158,0.6128,0.6126,0.6125,0.6122,0,0,0.6122,0.6122,0,0,0,0,0,0,0,0,0.6225,0.6222,0.6195,0.6194,0.6192,0.6171,0.6179,0.6158,0.6158,0.6171,0.6158,0.6157,0.6142,0.6139,0.6134,0.612,0.6119,0.6122,0.6121,0.6121,0.6121,0,0,0,0,0,0,0,0.6226,0.6223,0.6195,0.6195,0.6193,0.6188,0.6185,0.6175,0.6157,0.617,0.6168,0.6165,0.6141,0.6135,0.6133,0.6118,0.6122,0.6121,0.612,0.612,0.6098,0.6098,0,0,0,0,0,0,0.623,0.6225,0.6196,0.6194,0.6209,0.6188,0.6184,0.6178,0.6157,0.6154,0.6165,0.6164,0.6137,0.6135,0.6132,0.6126,0.6121,0.612,0.6119,0.6098,0.6098,0.6098,0,0,0,0,0,0,0.6231,0.6228,0.6197,0.6209,0.6205,0.6187,0.6181,0.6177,0.6172,0.6154,0.6151,0.6163,0.6137,0.6134,0.6124,0.6124,0.6119,0.6118,0.6098,0.6098,0.6098,0.6113,0,0,0,0,0,0,0.6232,0.6228,0.6227,0.6209,0.6204,0.619,0.6181,0.6177,0.617,0.6169,0.6151,0.6148,0.6137,0.6126,0.6123,0.6123,0.6118,0.6098,0.6098,0.6098,0.6112,0.6113,0.6114,0,0,0,0,0,0.6234,0.6232,0.6227,0.6224,0.6202,0.619,0.6187,0.6174,0.617,0.6169,0.6157,0.6149,0.6125,0.6125,0.6122,0.6121,0.6098,0.6098,0.6098,0.6112,0.6113,0.6114,0,0,0,0,0,0,0.6251,0.623,0.6224,0.6217,0.6205,0.6187,0.6184,0.6176,0.6165,0.6165,0.6149,0.6145,0.6137,0.6128,0.6129,0.6116,0.611,0.611,0.6122,0.6123,0.6124,0.6126,0.6117,0,0,0,0,0,0.6254,0.6246,0.6228,0.6223,0.6218,0.6202,0.6196,0.6187,0.6175,0.617,0.6157,0.6145,0.6135,0.6128,0.6118,0.6111,0.6106,0.6109,0.611,0.6111,0.611,0.6105,0.6105,0.6099,0.6099,0.6099,0,0,0.626,0.6248,0.6244,0.6226,0.6217,0.6208,0.6198,0.619,0.6183,0.6168,0.6158,0.6149,0.6134,0.6125,0.6121,0.6118,0.6111,0.6111,0.6112,0.6111,0.6105,0.6106,0.6106,0.6099,0.6099,0.6099,0,0,0.6267,0.6257,0.6252,0.6242,0.6227,0.6216,0.6215,0.6197,0.619,0.618,0.6168,0.616,0.6143,0.6132,0.6125,0.6126,0.6118,0.6123,0.6129,0.6123,0.6124,0.6124,0.6124,0.6124,0.6123,0.6123,0.6123,0,0.6276,0.6264,0.625,0.6242,0.6234,0.622,0.6214,0.6205,0.6187,0.6182,0.6179,0.6156,0.6145,0.6133,0.6134,0.6128,0.6126,0.6125,0.6125,0.6125,0.6125,0.6125,0.6125,0.6124,0.6124,0.6123,0.6123,0,0.6275,0.6267,0.6264,0.6247,0.6239,0.6232,0.6217,0.621,0.6202,0.6191,0.618,0.6166,0.6152,0.6149,0.6141,0.6136,0.6134,0.6128,0.6122,0.6127,0.6126,0.6126,0.6125,0.6124,0.6124,0.6124,0,0,0.6293,0.6268,0.6267,0.6258,0.624,0.6233,0.6225,0.6211,0.6205,0.6193,0.6186,0.6171,0.6165,0.6156,0.6147,0.6142,0.6143,0.6137,0.6136,0.6138,0.6135,0.614,0.614,0.6137,0.6137,0.6137,0.6136,0,0.6296,0.6281,0.6268,0.6258,0.6249,0.6235,0.6228,0.6216,0.6205,0.6196,0.6184,0.6174,0.6167,0.6162,0.6157,0.6144,0.6142,0.6144,0.6129,0.6129,0.6133,0.6139,0.6144,0.6144,0.6136,0.6136,0.6136,0,0.6298,0.6287,0.6276,0.6257,0.6253,0.6247,0.6233,0.6224,0.621,0.6202,0.6192,0.6182,0.6172,0.6167,0.6153,0.6154,0.6147,0.614,0.6139,0.6137,0.6133,0.6137,0.6144,0.6144,0.6136,0.6136,0.6136,0,0.6311,0.6293,0.6283,0.6277,0.6256,0.6251,0.6242,0.6227,0.622,0.6207,0.6202,0.6188,0.6181,0.617,0.6156,0.6154,0.6142,0.6137,0.6135,0.6136,0.6134,0.6134,0.6139,0.613,0.613,0.613,0.613,0,0.6316,0.631,0.6289,0.6283,0.6275,0.626,0.6252,0.6242,0.6228,0.622,0.6207,0.6199,0.6181,0.617,0.6159,0.6148,0.6145,0.6138,0.6135,0.6139,0.614,0.6135,0.6134,0.613,0.613,0.613,0.613,0,0.6329,0.6315,0.6304,0.6284,0.6279,0.6274,0.6257,0.625,0.6239,0.6228,0.6225,0.6207,0.6194,0.6179,0.6161,0.6153,0.6143,0.6139,0.6148,0.6146,0.6146,0.6146,0.6147,0.6146,0.6138,0.6138,0.6138,0,0.6333,0.6328,0.6308,0.6301,0.6292,0.6282,0.6274,0.6258,0.625,0.6232,0.6228,0.6214,0.6202,0.6182,0.6167,0.6153,0.6148,0.6149,0.6146,0.6149,0.6147,0.6147,0.6146,0.615,0.615,0.615,0.6151,0,0.6342,0.6334,0.6323,0.631,0.63,0.6289,0.6276,0.6272,0.6253,0.6245,0.6231,0.6222,0.6203,0.6189,0.6173,0.6163,0.6153,0.6152,0.6151,0.6154,0.616,0.6156,0.615,0.6152,0.6152,0.6152,0.6151,0.6151,0.635,0.6344,0.6328,0.6316,0.6305,0.6294,0.6287,0.6274,0.6263,0.6247,0.6238,0.6225,0.6209,0.6186,0.6176,0.6165,0.6162,0.616,0.616,0.616,0.616,0.6162,0.6162,0.6162,0.6162,0.6162,0.6162,0,0.6357,0.6346,0.6335,0.6318,0.6308,0.63,0.6286,0.6278,0.6266,0.6253,0.6241,0.6225,0.6211,0.6195,0.618,0.6174,0.6169,0.617,0.6171,0.6168,0.6165,0.6167,0.6175,0.6175,0.6175,0.6175,0.6175,0.6175,0.6359,0.6349,0.634,0.6323,0.6312,0.6299,0.6292,0.6281,0.627,0.6253,0.6241,0.6231,0.6215,0.6199,0.6186,0.6181,0.6176,0.6178,0.6173,0.617,0.6169,0.6167,0.6169,0.6178,0.6178,0.6177,0.6177,0.6177]}]]